Back to catalog

CZ-6A DEB

AliveSSO
NORAD 55559·DEBRIS·🇨🇳 China

Launched Nov 11, 2022 from Taiyuan Satellite Launch Center

Loading…

Next Passes (next 24 hours)

TLE

FreshSource: Space-Track

Epoch: Sep 13, 2026, 23:11 UTC

1 55559U 22151ZH  26256.96635087  .00003374  00000-0  14733-2 0  9992
2 55559  98.8338 263.6198 0077444   9.4194 350.8415 14.22947161196782

Track CZ-6A DEB in real time with AllMySat

Download on the App Store